15.05.2024;06:00;12
15.05.2024;05:00;9
15.05.2024;04:00;10
15.05.2024;03:00;7
15.05.2024;02:00;6
15.05.2024;01:00;7
14.05.2024;24:00;7
14.05.2024;23:00;7
14.05.2024;22:00;8
14.05.2024;21:00;8
14.05.2024;20:00;9
14.05.2024;19:00;8
14.05.2024;18:00;8
14.05.2024;17:00;7
14.05.2024;16:00;6
14.05.2024;15:00;10
14.05.2024;14:00;11
14.05.2024;13:00;14
14.05.2024;12:00;13
14.05.2024;11:00;14
14.05.2024;10:00;14
14.05.2024;09:00;15
14.05.2024;08:00;19
14.05.2024;07:00;19
14.05.2024;06:00;16
14.05.2024;05:00;18
14.05.2024;04:00;21
14.05.2024;03:00;14
14.05.2024;02:00;11
14.05.2024;01:00;10
13.05.2024;24:00;12
13.05.2024;23:00;13
13.05.2024;22:00;8
13.05.2024;21:00;7
13.05.2024;20:00;9
13.05.2024;19:00;7
13.05.2024;18:00;7
13.05.2024;17:00;8
13.05.2024;16:00;8
13.05.2024;15:00;9
13.05.2024;14:00;9
13.05.2024;13:00;10
13.05.2024;12:00;10
13.05.2024;11:00;11
13.05.2024;10:00;13
13.05.2024;09:00;16
13.05.2024;08:00;21
13.05.2024;07:00;20
13.05.2024;06:00;19
13.05.2024;05:00;20
13.05.2024;04:00;20
13.05.2024;03:00;13
13.05.2024;02:00;13
13.05.2024;01:00;12
12.05.2024;24:00;12
12.05.2024;23:00;12
12.05.2024;22:00;12
12.05.2024;21:00;11
12.05.2024;20:00;12
12.05.2024;19:00;10
12.05.2024;18:00;9
12.05.2024;17:00;9
12.05.2024;16:00;9
12.05.2024;15:00;9
12.05.2024;14:00;9
12.05.2024;13:00;10
12.05.2024;12:00;11
12.05.2024;11:00;15
12.05.2024;10:00;18
12.05.2024;09:00;21
12.05.2024;08:00;23
12.05.2024;07:00;25
12.05.2024;06:00;26
12.05.2024;05:00;26
12.05.2024;04:00;27
12.05.2024;03:00;24
12.05.2024;02:00;21
12.05.2024;01:00;18
11.05.2024;24:00;18
11.05.2024;23:00;17
11.05.2024;22:00;17
11.05.2024;21:00;11
11.05.2024;20:00;10
11.05.2024;19:00;11
11.05.2024;18:00;11
11.05.2024;17:00;10
11.05.2024;16:00;11
11.05.2024;15:00;11
11.05.2024;14:00;14
11.05.2024;13:00;15
11.05.2024;12:00;13
11.05.2024;11:00;16
11.05.2024;10:00;19
11.05.2024;09:00;17
11.05.2024;08:00;17
11.05.2024;07:00;16
11.05.2024;06:00;16
11.05.2024;05:00;18
11.05.2024;04:00;18
11.05.2024;03:00;16
11.05.2024;02:00;19
11.05.2024;01:00;20
10.05.2024;24:00;21
10.05.2024;23:00;18
10.05.2024;22:00;15
10.05.2024;21:00;13
10.05.2024;20:00;10
10.05.2024;19:00;9
10.05.2024;18:00;9
10.05.2024;17:00;9
10.05.2024;16:00;9
10.05.2024;15:00;9
10.05.2024;14:00;9
10.05.2024;13:00;11
10.05.2024;12:00;16
10.05.2024;11:00;17
10.05.2024;10:00;18
10.05.2024;09:00;#
10.05.2024;08:00;17
10.05.2024;07:00;19
10.05.2024;06:00;17
10.05.2024;05:00;18
10.05.2024;04:00;19
10.05.2024;03:00;21
10.05.2024;02:00;18
10.05.2024;01:00;18
